{"data":{"norad_id":66393,"intl_designator":"2025-257P","name":"STARLINK-35652","alt_names":[],"object_type":"PAYLOAD","status":"ACTIVE","operator":null,"country":"US","launch_date":"2025-11-09","launch_site_code":"AFETR","launch_vehicle":null,"mission":null,"orbit_class":"UNKNOWN","rcs_meters":null,"size_class":null,"mass_kg":null,"dimensions":null,"purposes":["comms"],"wikipedia_slug":null,"has_3d_model":false,"image_url":null,"decayed_at":null,"tle_current":{"epoch":"2026-09-20T19:51:21.117600Z","epoch_age_seconds":65155,"freshness":"FRESH","line1":"1 66393U 25257P   26263.82732775  .00016539  00000+0  49929-3 0  9997","line2":"2 66393  53.1590  28.2383 0000836 109.4346 250.6747 15.34415696 49640","mean_motion":15.34415696,"eccentricity":8.36e-5,"inclination_deg":53.159,"raan_deg":28.2383,"arg_perigee_deg":109.4346,"mean_anomaly_deg":250.6747,"bstar":0.00049929,"rev_number":4964,"period_min":93.84679808437,"perigee_km":462.08469844098,"apogee_km":463.22847912902,"semimajor_km":6840.793588785,"source":"CELESTRAK","updated_at":"2026-09-21T09:00:35.887728Z"}}}